Погода Чулпаново

Погода Чулпаново : погода сейчас, прогноз погоды и архив. Всё, что Вы хотите узнать о погоде Чулпаново!

Поиск расширенной информации на нашем сайте:

Другие новости

Новости СМИ2

Главная страница сайта

Новости сайта

03.07.2017

Напоминаем, что на нашем специализированном сайте Метеоцентр.Азия вы можете получить высокодетализированные автоматические прогнозы погоды по пунктам России, СНГ и мира в авиационном формате (включающие направление и скорость ветра, видимость, явления погоды, количество и форму облачности, нижнюю и верхнюю границу облачности).

Рекомендуем: новости Бердичева

Погода Чулпаново - сегодня

Время (UTC), дата Ветер
(°,м/с) 
Видим.   Явления Облачность Т
(°С)
Тd
(°С)
f(%) Тe
(°С)
Pmin
(гПа)
dP
(гПа)
Po
(мм)
O2
(г/м3)
Тmin Tmax R s Состояние
почвы
12 18.06.18 330 (СЗ) 20000 м    6/5 1000 м верхняя 
[Cu hum|Ci fib]
+25.8 +7.1 30 +26  1010.7  -0.8  751  276           
15 18.06.18 320 (СЗ) 20000 м    5/4 1000 м верхняя 
[Cu hum|Ci fib]
+24.4 +7.5 34 +24  1010.2  -0.5  751  277    +26.1       
18 18.06.18 280 (З) 20000 м    3/0 верхняя 
[Ci fib]
+17.3 +9 58 +18  1010.6  0.1  751  283           
21 18.06.18 230 (ЮЗ) 20000 м    3/0 верхняя 
[Ci fib]
+9.8 +7 83 +11  1010.7  0.1  751  291           
00 19.06.18 200 (Ю) 20000 м    ясно 
+9.4 +6.5 82 +10  1010.8  0.1  751  292           
06 19.06.18 290 (З) 20000 м    1/0 верхняя 
[Ci sp]
+25.6 +10.3 38 +27  1010.2  -0.3  751  275           
09 19.06.18 300 (СЗ) 20000 м    10/3 1000 м средняя, верхняя 
[Cu hum|Ac trans|Ci fib]
+27.5 +7.9 29 +28  1009.3  -0.9  750  273           
12 19.06.18 320 (СЗ) 20000 м    5/3 1000 м средняя, верхняя 
[Cu hum|Ac trans|Ci sp]
+28.6 +8.9 29 +29  1008.2  -1  750  272           
15 19.06.18 270 (З) 20000 м    6/3 1000 м кучево-дожд., средняя, верхняя 
[Cb cap|Ac trans|Ci sp]
+24.1 +10.6 43 +26  1008  -0.3  749  276    +28.8       
18 19.06.18 200 (Ю) 20000 м    6/1 1000 м средняя, верхняя 
[Cu med, cong|Ac trans|Ci sp]
+17.1 +11.8 71 +22  1008.5  0.2  750  282           
21 19.06.18 220 (ЮЗ) 20000 м    4/0 средняя, верхняя 
[Ac trans|Ci sp]
+15.8 +12.1 79 +21  1007.9  -0.6  749  283           
00 20.06.18 210 (ЮЗ) 20000 м    5/0 средняя, верхняя 
[Ac trans|Ci fib]
+13.9 +11 83 +17  1007.3  -0.7  749  285           
03 20.06.18 210 (ЮЗ) 20000 м    4/0 средняя, верхняя 
[Ac trans|Ci fib]
+18.2 +12.8 71 +24  1006.2  -0.9  748  280  +13.4        сухая 
06 20.06.18 230 (ЮЗ) 20000 м    8/0 средняя, верхняя 
[Ac trans|Ci fib]
+25 +13.7 49 +32  1004.4  -1.6  747  273           
09 20.06.18 210 (ЮЗ) 4{15}  20000 м  в посл. час ливневой дождь  10/4 600 м кучево-дожд., средняя 
[Cb cap|Ac As]
+20.9 +15.5 71 +31  1003.1  -1.4  746  276           
12 20.06.18 250 (З) 5{21}  20000 м  в посл. час гроза{ливн. осадки}  8/3 600 м кучево-дожд., средняя, верхняя 
[Cb cap|Ac trans|Ci fib]
+20.1 +16.8 81 +32  1001.9  -1.2  745  276           
15 20.06.18 270 (З) 3{11}  20000 м  в посл. час ливневой дождь  6/3 600 м кучево-дожд., средняя, верхняя 
[Cb cap|Ac trans|Ci fib]
+17.8 +14.3 80 +26  1003.3  1.3  746  279    +26.8     
18 20.06.18 220 (ЮЗ) 20000 м  {ливн. осадки}  6/0 средняя, верхняя 
[Ac trans|Ci fib]
+15.1 +11.9 81 +20  1004.7  1.3  747  283           
21 20.06.18 190 (Ю) 20000 м    3/0 верхняя 
[Ci fib]
+11.4 +9.3 87 +11  1005  0.2  747  287           
00 21.06.18 190 (Ю) 20000 м    3/0 средняя, верхняя 
[Ac trans|Ci fib]
+9.8 +7.4 85 +9  1005.5  0.4  747  289           
03 21.06.18 250 (З) 20000 м    1/0 верхняя 
[Ci fib]
+14.9 +9.1 68 +15  1005.7  0.4  747  284  +9        влажная 
06 21.06.18 280 (З) 6{11}  20000 м    6/0 средняя, верхняя 
[Ac trans|Ci fib]
+19.2 +7.8 48 +19  1005.5  0.1  747  280           
09 21.06.18 260 (З) 7-11{14}  20000 м    10/3 1000 м средняя, верхняя 
[Cu hum|Ac trans|Ci fib]
+20.3 +6.1 40 +20  1004.4  -1  747  279           
12 21.06.18 280 (З) 8-13{14}  20000 м    10/3 1000 м средняя, верхняя 
[Cu hum|Ac trans|Ci fib]
+22 +3.6 30 +22  1004  -0.4  746  278           
15 21.06.18 270 (З) 4{15}  20000 м    10/1 1000 м верхняя 
[Cu hum|Ci fib]
+20.9 +3 31 +21  1004.3  0.3  747  279    +22.6       
Время (UTC), дата Ветер
(°,м/с) 
Видим.   Явления Облачность Т
(°С)
Тd
(°С)
f(%) Тe
(°С)
Pmin
(гПа)
dP
(гПа)
Po
(мм)
O2
(г/м3)
Тmin Tmax R s Состояние
почвы

Для получения пояснительной информации подведите курсор к названию столбца.

ПОГОДА Чулпаново - архив

Всё, что Вы хотите узнать о погоде Чулпаново - удобно и подробно!

Выберите нужную дату (начиная с 1 января 2015* года) и нажмите кнопку "Найти".
Будут отображены архивные сводки погоды по пункту Чулпаново, начиная с указанной даты.


Отображать данные в формате CSV (для использования в таблицах Excel)


Внимание! Наш архив погоды предназначен исключительно для личного некоммерческого использования в познавательных целях. Если Вам необходимы официальные справки о состоянии погоды (для производственных, юридических, коммерческих и т.п. целей), обращайтесь в органы Росгидромета.

*Примечание: данная дата относится к архиву по метеостанциям СССР (Россия, СНГ, Балтия).
Архив по метеостанциям Зарубежной Европы и Азии (кроме Китая) хранится 10 дней, по другим регионам земного шара (Китай, Африка, Америка, Австралия, Океания) - 1 день.

Чулпаново - район местоположения метеостанции


Название, широта, долгота, высота метеостанции:
Чулпаново 54.5°ш. 50.4°д. 78 м над ур. моря [Российская Федерация]

Дополнительная информация

В oтличие oт бoльшинства пoгoдных сайтoв мы публикуем пoдрoбную метеoинфoрмацию в детальнoм прoфессиoнальнoм фoрмате.

Характеристики температуры и влажнoсти вoздуха измеряются на высoте 2 м в тени вдали oт зданий и деревьев.
Скoрoсть ветра измеряется на высoте 10 м (на урoвне рoста челoвека скoрoсть ветра ниже в 1.5-2 раза). Если метеoстанция нахoдится в гoрoде или в лесу, тo скoрoсть ветра занижена на 2-4 м/с пo сравнению с oткрытым местoм. Скoрoсть ветра над акватoриями крупных рек и oзёр, а также на вершинах хoлмoв на 2-5 м/с выше, чем в oбычных услoвиях.
Атмoсфернoе давление в разных тoчках местнoсти мoжет значительнo oтличаться oт давления на метеoстанции, в зависимoсти oт услoвий рельефа (при пoдъёме на 10 м давление пoнижается примернo на 1 мм рт.ст.).